Regional Weather Roundup
Issued by NWS

Home | Current Version | Previous Version | Graphics & Text | Print | Product List | Glossary On
Versions: 1 2 3 4 5 6 7 8 9 10 11 12 13 14 15 16 17 18 19 20 21 22 23 24 25 26 27 28 29 30 31 32 33 34 35 36 37 38 39 40 41 42 43 44 45 46 47 48 49 50
000
ASUS43 KMPX 281510
RWRMN
WEATHER ROUNDUP FOR MINNESOTA
NATIONAL WEATHER SERVICE TWIN CITIES/CHANHASSEN MN
900 AM CST WED JAN 28 2015


NOTE: "FAIR" INDICATES FEW OR NO CLOUDS BELOW 12,000 FEET WITH NO
SIGNIFICANT WEATHER AND/OR OBSTRUCTIONS TO VISIBILITY. N/A MEANS
CURRENT SKY AND/OR WEATHER CONDITIONS ARE NOT AVAILABLE.

MNZ060>063-068>070-281600-
   Twin Cities Metro

CITY           SKY/WX    TMP DP  RH WIND       PRES   REMARKS
TWIN CITIES    CLOUDY    28  24  85 SE15      29.98F WCI  16
ST PAUL        CLOUDY    28  25  88 SE13G24   30.00F FOG     WCI  17
CRYSTAL        CLOUDY    29  25  85 SE15G24   29.95F FOG     WCI  18
BLAINE         CLOUDY    28  28 100 SE12G17   29.97F FOG     WCI  18
LAKEVILLE      CLOUDY    27  25  93 SE12G17   29.97F FOG     WCI  16
EDEN PRAIRIE   CLOUDY    29  25  85 SE15      29.95F FOG     WCI  18
SOUTH ST PAUL  CLOUDY    28  25  87 SE10G17   29.99F FOG     WCI  19
LAKE ELMO      CLOUDY    28  27  93 SE12      30.00F FOG     WCI  18
$$
MNZ001>005-007-008-013>017-022>024-027-028-281600-
   Northwest Minnesota

CITY           SKY/WX    TMP DP  RH WIND       PRES   REMARKS
BEMIDJI        CLOUDY    30  29  97 SE10      29.83F FOG     WCI  21
HALLOCK        FOG       34  30  86 E6        29.81S VSB 1   WCI  29
ROSEAU         FOG       30  27  86 SE6       29.83S VSB 1   WCI  24
WARROAD        FOG       28  25  86 E8        29.84F VSB 3/4 WCI  20
THIEF RVR FALL CLOUDY    34  30  86 SE5       29.82R WCI  30
CROOKSTON      CLOUDY    34  30  86 S10       29.81F FOG     WCI  26
FOSSTON        CLOUDY    30  28  93 SE9       29.80F FOG     WCI  22
DETROIT LAKES  CLOUDY    32  32 100 S15G21    29.82R FOG     WCI  22
MOORHEAD       CLOUDY    34  34 100 S17G24    29.80F FOG     WCI  23
PARK RAPIDS    CLOUDY    31  29  92 SE15      29.83F FOG     WCI  20
MAHNOMEN       CLOUDY    32  30  93 S10G16    29.81R WCI  24
$$
MNZ006-009>011-018-025>026-281600-
   North Central Minnesota

CITY           SKY/WX    TMP DP  RH WIND       PRES   REMARKS
BAUDETTE       CLOUDY    28  27  96 SE9       29.85F FOG     WCI  19
FLAG ISLAND    CLOUDY    28  27  93 SE7       29.85F FOG     WCI  21
INTL FALLS     CLOUDY    27  24  89 SE8       29.90F WCI  19
WASKISH        CLOUDY    30  28  93 SE6       29.86S FOG     WCI  24
BIG FORK       CLOUDY    28  27  93 SE6       29.89F FOG     WCI  22
LONGVILLE      CLOUDY    28  27  93 SE12      29.87F FOG     WCI  18
GRAND RAPIDS   CLOUDY    27  23  86 SE10      29.90F WCI  17
CRANE LAKE     CLOUDY    23  21  93 S3        29.96F
ORR            CLOUDY    23  19  86 SE7       29.90F WCI  15
COOK           CLOUDY    23  21  93 SE7       29.93F WCI  15
WALKER         CLOUDY    29  28  96 SE8       29.84F FOG     WCI  21
$$
MNZ012-019>021-037-281600-
   Northeast Minnesota

CITY           SKY/WX    TMP DP  RH WIND       PRES   REMARKS
DULUTH         CLOUDY    24  20  84 SE9       29.95F FOG     WCI  14
ELY            CLOUDY    25  21  86 S8        29.94S WCI  16
HIBBING        CLOUDY    24  20  84 SE10      29.93F WCI  14
EVELETH        CLOUDY    23  21  93 SE10      29.95F FOG     WCI  12
DULUTH HARBOR  CLOUDY    27  23  86 CALM      30.02F
TWO HARBORS    CLOUDY    28  23  80 SE6       29.97F WCI  22
SILVER BAY     CLOUDY    27  23  86 SE3       29.98F
GRAND MARAIS     N/A     31  25  78 S6        30.05F WCI  25
G MARAIS ARPRT   N/A     25  19  80 SE7       29.98F FOG     WCI  17
$$
MNZ029>031-032-039>041-046>048-054>057-064-281600-
   West Central Minnesota

CITY           SKY/WX    TMP DP  RH WIND       PRES   REMARKS
FERGUS FALLS   CLOUDY    34  30  86 S18       29.85S FOG     WCI  23
WHEATON        CLOUDY    30  28  93 SE14      29.83S FOG     WCI  20
MORRIS         CLOUDY    34  30  86 SE21      29.81F FOG     WCI  22
ALEXANDRIA     CLOUDY    31  29  92 SE21      29.85S FOG     WCI  18
ELBOW LAKE     CLOUDY    32  31  95 SE17G24   29.81F FOG     WCI  21
WADENA         CLOUDY    30  28  93 SE12      29.84  FOG     WCI  21
GLENWOOD       CLOUDY    30  30 100 SE18      29.85F FOG     WCI  18
APPLETON       CLOUDY    34  30  86 SE10G17   29.84S FOG     WCI  26
BENSON         CLOUDY    34  30  86 S13       29.85F FOG     WCI  25
ORTONVILLE     MOCLDY    30  28  93 SE16G22   29.80F FOG     WCI  19
MADISON        MOCLDY    36  34  93 SE13      29.82S FOG
WILLMAR        CLOUDY    34  30  86 SE14      29.89S FOG     WCI  24
$$
MNZ033>034-036-042>043-049>051-058-059-281600-
   Central Minnesota

CITY           SKY/WX    TMP DP  RH WIND       PRES   REMARKS
ST CLOUD       CLOUDY    29  27  92 SE17      29.92S FOG     WCI  17
SAUK CENTRE    CLOUDY    30  30  98 SE12      29.87F FOG     WCI  21
PAYNESVILLE    CLOUDY    28  28 100 E13       29.90R FOG     WCI  18
AITKIN         CLOUDY    30  25  80 S10       29.90F HAZE    WCI  21
PINE RIVER     CLOUDY    28  28 100 S13G18    29.91F FOG     WCI  18
BRAINERD       CLOUDY    29  27  92 S12       29.90F FOG     WCI  19
STAPLES        CLOUDY    28  28 100 SE9       29.86F FOG     WCI  20
LONG PRAIRIE   CLOUDY    30  30 100 SE12G17   29.88S FOG     WCI  21
LITTLE FALLS   CLOUDY    30  28  93 SE10      29.91S FOG     WCI  21
LITCHFIELD     CLOUDY    32  32 100 SE9       29.90F FOG     WCI  24
BUFFALO        CLOUDY    30  28  91 SE10      29.94F FOG     WCI  21
MAPLE LAKE     CLOUDY    31  30  95 SE10G16   29.93F FOG     WCI  23
$$
MNZ037-044-045-052-053-281600-
   East Central Minnesota

CITY           SKY/WX    TMP DP  RH WIND       PRES   REMARKS
PRINCETON      CLOUDY    30  27  86 SE8       29.95F FOG     WCI  23
MORA           CLOUDY    27  23  86 SE9       29.98F WCI  17
CAMBRIDGE      CLOUDY    30  21  69 SE7       29.95F HAZE    WCI  23
RUSH CITY      CLOUDY    27  24  89 SE12G17   29.98F WCI  16
MOOSE LAKE     CLOUDY    27  23  86 S7        29.94F FOG     WCI  19
HINCKLEY       CLOUDY    28  27  93 SE10      29.97F WCI  19
CLOQUET        CLOUDY    25  21  86 SE7       29.95F FOG     WCI  17
MCGREGOR       CLOUDY    28  27  93 SE10      29.93F WCI  19
$$
MNZ071>073-080-081-089-090-097-098-281600-
   Southwest Minnesota

CITY           SKY/WX    TMP DP  RH WIND       PRES   REMARKS
MONTEVIDEO     CLOUDY    32  32 100 S13G18    29.85F FOG     WCI  22
GRANITE FALLS  CLOUDY    32  31  94 SE13      29.86S FOG     WCI  22
CANBY          MOCLDY    33  32  96 SE8       29.80F FOG     WCI  26
MARSHALL       CLOUDY    32  27  80 SE15      29.82F WCI  22
REDWOOD FALLS  CLOUDY    33  30  88 SE18      29.86F FOG     WCI  22
OLIVIA         CLOUDY    30  30 100 SE17G23   29.87S FOG     WCI  18
PIPESTONE      PTSUNNY   32  30  93 S14G21    29.76S FOG     WCI  22
WINDOM         CLOUDY    30  30 100 SE17G29   29.84F FOG     WCI  18
WORTHINGTON    CLOUDY    30  27  86 S17G25    29.82F WCI  18
JACKSON        CLOUDY    32  30  93 S16G23    29.86F FOG     WCI  21
TRACY          CLOUDY    32  31  96 S17G23    29.81F FOG     WCI  21
SLAYTON        CLOUDY    31  30  96 SE18G25   29.79F FOG     WCI  19
$$
MNZ065>067-074>077-082>085-091>093-281600-
   South Central Minnesota

CITY           SKY/WX    TMP DP  RH WIND       PRES   REMARKS
MANKATO        CLOUDY    30  25  80 SE20G28   29.92F WCI  18
NEW ULM        CLOUDY    30  30 100 S21       29.90S FOG     WCI  17
ST JAMES       CLOUDY    32  30  93 SE18G25   29.92R FOG     WCI  20
FAIRMONT       CLOUDY    30  27  86 S25       29.89F WCI  16
GLENCOE        CLOUDY    32  31  96 SE13      29.92F FOG     WCI  22
FARIBAULT      CLOUDY    28  27  93 SE18G25   29.96F FOG     WCI  16
OWATONNA       CLOUDY    27  27 100 SE20G25   29.95F FOG     WCI  13
WASECA         CLOUDY    30  28  93 SE15G22   29.95F FOG     WCI  19
ALBERT LEA     FOG       27  27 100 SE17G28   29.95F VSB 3/4 WCI  14
$$
MNZ078>079-086>088-094>096-281600-
   Southeast Minnesota

CITY           SKY/WX    TMP DP  RH WIND       PRES   REMARKS
ROCHESTER      CLOUDY    24  23  96 S21       30.00F FOG     WCI   9
RED WING       CLOUDY    27  25  93 SE10      30.02F FOG     WCI  17
STANTON        CLOUDY    28  25  86 SE9G17    29.98F WCI  20
DODGE CENTER   FOG       25  25 100 SE18G24   29.97F VSB 1/2 WCI  11
WINONA         CLOUDY    30  27  86 SE12      30.09F FOG     WCI  21
AUSTIN         FOG       27  25  93 SE14G20   29.99F VSB 1/2 WCI  15
PRESTON        FOG       23  22  96 S14       30.04S VSB 1/2 WCI  11
$$
ABBREVIATIONS USED IN REMARKS
   TC - TEMPERATURES IN CELSIUS
  WCI - WIND CHILL INDEX
   HX - HEAT INDEX
  VSB - VISIBILITY
$$


USA.gov is the U.S. government's official web portal to all federal, state and local government web resources and services.